Terminal Aerodrome Forecast
Issued by NWS Atlanta, GA

Home | Current Version | Previous Version | Text Only | Print | Product List | Glossary On
Versions: 1 2 3 4 5 6 7 8 9 10 11 12 13 14 15 16 17 18 19 20
000
FTUS42 KFFC 032325
TAFMCN
TAF
KMCN 032325Z 0400/0424 19005KT P6SM BKN045
     FM040800 20004KT 6SM BR OVC025
     FM041000 19004KT 6SM BR BKN009
     FM041400 22006KT P6SM BKN015
     FM041700 22009KT P6SM BKN025
     FM042200 20006KT P6SM SCT040 BKN100=

USA.gov is the U.S. government's official web portal to all federal, state and local government web resources and services.